[[{"header":{"parameterUnit":"m.s-1","parameterCategory":1,"la1":30.2992,"la2":30.254,"lo1":-89.0895,"lo2":-89.0443,"dy":0.0025,"dx":0.0025,"nx":19,"ny":19,"refTime":"2026-03-11T09:00:00:Z","depth":0,"parameterNumber":2,"parameterNumberName":"U-component_of_WINDS"},"data":[0,0,0,-2.5112,-2.5114,-2.5171,-2.5171,-2.5243,-2.5244,0,0,0,0,0,0,0,0,0,0,0,-2.5096,-2.5096,-2.5112,-2.5114,-2.5171,-2.5171,-2.5243,-2.5244,0,0,0,0,0,0,0,0,0,0,0,-2.5095,-2.5096,-2.5097,-2.5114,-2.5171,-2.5171,-2.5243,-2.52,0,0,0,0,0,0,0,0,0,0,-2.5145,-2.513,-2.5096,-2.5097,-2.5114,-2.5171,-2.5171,-2.5198,-2.5203,-2.5218,0,-2.5231,0,-2.5239,-2.5249,-2.5249,0,0,0,-2.5113,-2.5126,-2.5141,-2.5097,-2.5115,-2.517,-2.5145,-2.5201,-2.5206,-2.5224,-2.5232,-2.5235,-2.524,-2.5249,-2.525,-2.5337,-2.5338,0,0,-2.511,-2.5106,-2.5137,-2.5145,-2.5136,-2.5143,-2.5147,-2.5204,-2.5213,-2.5233,-2.5237,-2.5241,-2.525,-2.5251,-2.5337,-2.5337,0,0,0,-2.5101,-2.5104,-2.5118,-2.5142,-2.5152,-2.5145,-2.5149,-2.521,-2.5215,-2.5238,-2.5242,-2.525,-2.5251,-2.5336,-2.5337,-2.5353,0,0,0,-2.5099,-2.5099,-2.5116,-2.5114,-2.5151,-2.5182,-2.5154,-2.5211,-2.5218,-2.5242,-2.525,-2.5252,-2.5336,-2.5337,-2.5351,-2.536,0,0,0,-2.5092,-2.5098,-2.5106,-2.5114,-2.5138,-2.5181,-2.5189,-2.5213,-2.5221,-2.5249,-2.5252,-2.5336,-2.5337,-2.535,-2.5358,-2.5381,0,0,0,-2.5082,-2.512,-2.5106,-2.515,-2.5138,-2.5191,-2.5189,-2.5229,-2.5256,-2.5251,-2.5336,-2.5337,-2.535,-2.5357,-2.5379,-2.5398,-2.5406,0,0,-2.5127,-2.5125,-2.5151,-2.5141,-2.5195,-2.5183,-2.524,-2.5268,-2.5275,-2.5316,-2.5318,-2.5352,-2.5358,-2.5381,-2.5454,-2.546,0,0,0,-2.5164,-2.5182,-2.5198,-2.5223,-2.5246,-2.5266,-2.5287,-2.5297,-2.5332,-2.5295,-2.5367,-2.5371,-2.5385,-2.5393,-2.5398,-2.5409,-2.5341,-2.5341,-2.5341,-2.522,-2.5227,-2.527,-2.5284,-2.5309,-2.5329,-2.535,-2.5367,-2.5367,-2.5384,-2.5395,-2.5439,-2.545,-2.5453,-2.5465,-2.5408,-2.5408,-2.5408,-2.5408,-2.5285,-2.5311,-2.5311,-2.5352,-2.5359,-2.5394,-2.5415,-2.5414,-2.5447,-2.5431,-2.5443,-2.5424,-2.546,-2.547,-2.5409,-2.5409,-2.5409,-2.5409,-2.5408,-2.532,-2.5334,-2.5347,-2.5384,-2.5412,-2.5425,-2.5457,-2.5462,-2.5468,-2.548,-2.5492,-2.5491,-2.549,-2.5486,-2.5486,-2.5486,-2.5486,-2.5486,-2.5486,-2.5351,-2.5366,-2.5391,-2.5419,-2.5436,-2.5459,-2.5481,-2.5497,-2.5517,-2.5519,-2.5519,-2.5516,-2.5463,-2.5448,-2.5489,-2.5488,-2.5488,-2.5488,-2.5488,-2.5411,-2.5398,-2.5438,-2.5455,-2.5488,-2.5515,-2.5523,-2.5556,-2.5571,-2.5586,-2.5581,-2.5542,-2.554,-2.5535,-2.5523,-2.558,-2.558,-2.558,-2.558,-2.5439,-2.544,-2.5481,-2.5508,-2.5535,-2.5545,-2.5589,-2.5607,-2.5623,-2.5632,-2.5625,-2.5611,-2.5606,-2.5606,-2.5601,-2.5589,-2.5662,-2.5662,-2.5662,-2.5476,-2.5479,-2.5515,-2.5531,-2.5557,-2.5579,-2.562,-2.565,-2.5666,-2.5666,-2.5639,-2.5636,-2.5612,-2.5604,-2.5601,-2.5592,-2.5571,0,0]},{"header":{"parameterUnit":"m.s-1","parameterCategory":1,"la1":30.2992,"la2":30.254,"lo1":-89.0895,"lo2":-89.0443,"dy":0.0025,"dx":0.0025,"nx":19,"ny":19,"refTime":"2026-03-11T09:00:00:Z","depth":0,"parameterNumber":3,"parameterNumberName":"V-component_of_WINDS"},"data":[0,0,0,3.6715,3.6716,3.6791,3.6792,3.6874,3.6874,0,0,0,0,0,0,0,0,0,0,0,3.6682,3.6683,3.6715,3.6717,3.6791,3.6792,3.6874,3.6874,0,0,0,0,0,0,0,0,0,0,0,3.6682,3.6683,3.6683,3.6717,3.6791,3.6792,3.6873,3.6822,0,0,0,0,0,0,0,0,0,0,3.6752,3.6711,3.6683,3.6683,3.6717,3.6791,3.6792,3.682,3.6825,3.6833,0,3.6836,0,3.6856,3.6879,3.6879,0,0,0,3.6724,3.6706,3.6736,3.6683,3.6718,3.6791,3.676,3.6823,3.6829,3.684,3.6837,3.6841,3.6858,3.6879,3.6879,3.6898,3.6898,0,0,3.672,3.669,3.6732,3.674,3.6725,3.6757,3.6762,3.6827,3.6822,3.6837,3.6843,3.6859,3.688,3.688,3.6898,3.6898,0,0,0,3.6703,3.6687,3.6716,3.6736,3.675,3.6759,3.6765,3.6819,3.6831,3.6844,3.686,3.688,3.6881,3.6898,3.6898,3.6855,0,0,0,3.6701,3.6677,3.6713,3.6696,3.6749,3.6785,3.6755,3.6826,3.6835,3.686,3.688,3.6881,3.6899,3.6898,3.6857,3.684,0,0,0,3.6681,3.6675,3.6682,3.6694,3.6725,3.6785,3.6801,3.6829,3.6844,3.6879,3.6882,3.6899,3.6898,3.6859,3.6843,3.6838,0,0,0,3.6651,3.6641,3.6681,3.6677,3.6724,3.6758,3.6801,3.6827,3.6852,3.688,3.6899,3.6898,3.686,3.6845,3.6839,3.6828,3.6821,0,0,3.6622,3.6636,3.6637,3.6674,3.6693,3.6749,3.6763,3.6813,3.6844,3.6879,3.688,3.6857,3.6843,3.6838,3.6788,3.6781,0,0,0,3.6617,3.6617,3.6629,3.6651,3.669,3.6724,3.6776,3.6797,3.6828,3.6855,3.6854,3.6847,3.6846,3.6842,3.6836,3.6838,3.6895,3.6895,3.6895,3.653,3.6573,3.6577,3.6629,3.6651,3.6708,3.673,3.6767,3.68,3.68,3.681,3.6775,3.6769,3.6765,3.6767,3.6808,3.6808,3.6808,3.6807,3.6492,3.6499,3.6549,3.6571,3.6617,3.6636,3.6693,3.6717,3.6744,3.6769,3.677,3.6794,3.6757,3.6761,3.6805,3.6805,3.6806,3.6806,3.6806,3.644,3.6452,3.6477,3.6518,3.6545,3.6599,3.6624,3.6664,3.6702,3.6703,3.6721,3.6722,3.6729,3.6709,3.6709,3.6709,3.6709,3.6708,3.6708,3.6376,3.6407,3.6422,3.6467,3.649,3.6525,3.6585,3.6609,3.6647,3.6674,3.6675,3.6711,3.6745,3.6753,3.6707,3.6707,3.6707,3.6707,3.6707,3.6322,3.6342,3.6365,3.6388,3.6447,3.6474,3.6527,3.6573,3.6599,3.6611,3.6649,3.6667,3.6685,3.6689,3.6696,3.6638,3.6638,3.6638,3.6638,3.6279,3.6293,3.6328,3.6363,3.6402,3.6453,3.6482,3.6532,3.6586,3.6606,3.6621,3.6634,3.6636,3.6653,3.6658,3.6666,3.66,3.66,3.66,3.6249,3.627,3.6284,3.6338,3.6389,3.6432,3.6462,3.6502,3.6568,3.66,3.6623,3.6624,3.6646,3.665,3.6681,3.6688,3.6702,0,0]}]]